Time,TemperatureF,DewpointF,PressureIn,WindDirection,WindDirectionDegrees,WindSpeedMPH,WindSpeedGustMPH,Humidity,HourlyPrecipIn,Conditions,Clouds,dailyrainin,SolarRadiationWatts/m^2,SoftwareType,DateUTC
2013-02-10 00:00:00,19.0,8.6,30.25,NW,324,9.0,22.0,63,0.00,,,0.00,0.0,meteohub,2013-02-10 05:00:00,
2013-02-10 00:01:00,19.0,8.6,30.26,NW,323,15.0,23.0,63,0.00,,,0.00,0.0,meteohub,2013-02-10 05:01:00,
2013-02-10 00:02:00,19.0,8.6,30.25,NNW,332,13.0,23.0,63,0.00,,,0.00,0.0,meteohub,2013-02-10 05:02:00,
2013-02-10 00:07:00,19.0,8.2,30.26,NW,314,7.0,23.0,62,0.00,,,0.00,0.0,meteohub,2013-02-10 05:07:00,
2013-02-10 00:12:00,18.9,8.4,30.26,NNW,336,19.0,23.0,63,0.00,,,0.00,0.0,meteohub,2013-02-10 05:12:00,
2013-02-10 00:17:00,18.9,8.1,30.26,NW,322,8.0,19.0,62,0.00,,,0.00,0.0,meteohub,2013-02-10 05:17:00,
2013-02-10 00:22:00,18.9,8.1,30.26,NNW,348,14.0,19.0,62,0.00,,,0.00,0.0,meteohub,2013-02-10 05:22:00,
2013-02-10 00:27:00,18.9,8.1,30.27,NW,306,8.0,19.0,62,0.00,,,0.00,0.0,meteohub,2013-02-10 05:27:00,
2013-02-10 00:32:00,18.7,7.9,30.27,West,273,5.0,16.0,62,0.00,,,0.00,0.0,meteohub,2013-02-10 05:32:00,
2013-02-10 00:37:00,18.5,8.1,30.27,NNW,338,12.0,16.0,63,0.00,,,0.00,0.0,meteohub,2013-02-10 05:37:00,
2013-02-10 00:42:00,18.3,7.9,30.27,NNW,334,13.0,21.0,63,0.00,,,0.00,0.0,meteohub,2013-02-10 05:42:00,
2013-02-10 00:47:00,18.3,7.9,30.27,North,5,10.0,21.0,63,0.00,,,0.00,0.0,meteohub,2013-02-10 05:47:00,
2013-02-10 00:52:00,18.1,7.7,30.27,North,351,16.0,21.0,63,0.00,,,0.00,0.0,meteohub,2013-02-10 05:52:00,
2013-02-10 00:57:00,18.1,8.4,30.27,NNW,334,9.0,19.0,65,0.00,,,0.00,0.0,meteohub,2013-02-10 05:57:00,
2013-02-10 01:02:00,18.1,8.1,30.28,NNW,342,9.0,19.0,64,0.00,,,0.00,0.0,meteohub,2013-02-10 06:02:00,
2013-02-10 01:07:00,18.0,7.9,30.28,NW,317,17.0,18.0,64,0.00,,,0.00,0.0,meteohub,2013-02-10 06:07:00,
2013-02-10 01:12:00,18.0,7.5,30.28,NNW,341,12.0,18.0,63,0.00,,,0.00,0.0,meteohub,2013-02-10 06:12:00,
2013-02-10 01:17:00,18.0,7.5,30.28,NNW,336,9.0,17.0,63,0.00,,,0.00,0.0,meteohub,2013-02-10 06:17:00,
2013-02-10 01:22:00,18.0,7.5,30.28,WNW,302,7.0,19.0,63,0.00,,,0.00,0.0,meteohub,2013-02-10 06:22:00,
2013-02-10 01:27:00,18.0,7.5,30.28,NW,306,13.0,19.0,63,0.00,,,0.00,0.0,meteohub,2013-02-10 06:27:00,
2013-02-10 01:32:00,18.0,7.2,30.29,NW,317,15.0,19.0,62,0.00,,,0.00,0.0,meteohub,2013-02-10 06:32:00,
2013-02-10 01:37:00,17.8,7.3,30.29,NNW,330,7.0,17.0,63,0.00,,,0.00,0.0,meteohub,2013-02-10 06:37:00,
2013-02-10 01:42:00,17.6,7.2,30.29,NW,314,5.0,17.0,63,0.00,,,0.00,0.0,meteohub,2013-02-10 06:42:00,
2013-02-10 01:48:00,17.4,7.3,30.29,NNW,344,4.0,16.0,64,0.00,,,0.00,0.0,meteohub,2013-02-10 06:48:00,
2013-02-10 01:53:00,17.4,7.3,30.29,NNW,332,8.0,16.0,64,0.00,,,0.00,0.0,meteohub,2013-02-10 06:53:00,
2013-02-10 01:58:00,17.4,7.3,30.29,North,355,10.0,14.0,64,0.00,,,0.00,0.0,meteohub,2013-02-10 06:58:00,
2013-02-10 02:03:00,17.4,7.3,30.30,WNW,299,6.0,13.0,64,0.00,,,0.00,0.0,meteohub,2013-02-10 07:03:00,
2013-02-10 02:08:00,17.2,7.2,30.30,NNW,335,5.0,14.0,64,0.00,,,0.00,0.0,meteohub,2013-02-10 07:08:00,
2013-02-10 02:13:00,17.2,7.2,30.30,NW,311,6.0,16.0,64,0.00,,,0.00,0.0,meteohub,2013-02-10 07:13:00,
2013-02-10 02:18:00,17.2,7.2,30.30,NNW,342,10.0,16.0,64,0.00,,,0.00,0.0,meteohub,2013-02-10 07:18:00,
2013-02-10 02:23:00,17.1,7.3,30.30,WNW,292,5.0,16.0,65,0.00,,,0.00,0.0,meteohub,2013-02-10 07:23:00,
2013-02-10 02:29:00,17.2,7.2,30.30,NNW,336,5.0,12.0,64,0.00,,,0.00,0.0,meteohub,2013-02-10 07:29:00,
2013-02-10 02:34:00,17.2,7.2,30.30,NNW,345,11.0,12.0,64,0.00,,,0.00,0.0,meteohub,2013-02-10 07:34:00,
2013-02-10 02:39:00,17.2,6.8,30.30,NNW,342,1.0,15.0,63,0.00,,,0.00,0.0,meteohub,2013-02-10 07:39:00,
2013-02-10 02:44:00,17.2,6.8,30.31,NW,311,5.0,15.0,63,0.00,,,0.00,0.0,meteohub,2013-02-10 07:44:00,
2013-02-10 02:49:00,17.1,7.0,30.30,NW,324,1.0,15.0,64,0.00,,,0.00,0.0,meteohub,2013-02-10 07:49:00,
2013-02-10 02:54:00,17.2,7.2,30.31,NNW,330,2.0,14.0,64,0.00,,,0.00,0.0,meteohub,2013-02-10 07:54:00,
2013-02-10 02:59:00,17.2,6.4,30.31,NNW,332,1.0,14.0,62,0.00,,,0.00,0.0,meteohub,2013-02-10 07:59:00,
2013-02-10 03:04:00,17.1,5.5,30.31,WNW,303,5.0,9.0,60,0.00,,,0.00,0.0,meteohub,2013-02-10 08:04:00,
2013-02-10 03:10:00,17.1,5.9,30.31,NNW,342,4.0,7.0,61,0.00,,,0.00,0.0,meteohub,2013-02-10 08:10:00,
2013-02-10 03:15:00,16.9,5.4,30.31,NNW,342,0.0,9.0,60,0.00,,,0.00,0.0,meteohub,2013-02-10 08:15:00,
2013-02-10 03:20:00,16.5,5.7,30.32,NW,310,2.0,10.0,62,0.00,,,0.00,0.0,meteohub,2013-02-10 08:20:00,
2013-02-10 03:25:00,16.3,5.9,30.31,NNW,329,7.0,8.0,63,0.00,,,0.00,0.0,meteohub,2013-02-10 08:25:00,
2013-02-10 03:30:00,16.2,5.7,30.32,NNW,333,5.0,8.0,63,0.00,,,0.00,0.0,meteohub,2013-02-10 08:30:00,
2013-02-10 03:35:00,16.2,6.1,30.31,NNW,334,6.0,8.0,64,0.00,,,0.00,0.0,meteohub,2013-02-10 08:35:00,
2013-02-10 03:40:00,16.2,5.7,30.31,NNW,327,2.0,8.0,63,0.00,,,0.00,0.0,meteohub,2013-02-10 08:40:00,
2013-02-10 03:45:00,16.2,5.0,30.32,NNW,328,4.0,7.0,61,0.00,,,0.00,0.0,meteohub,2013-02-10 08:45:00,
2013-02-10 03:51:00,16.2,5.0,30.32,NNW,329,1.0,7.0,61,0.00,,,0.00,0.0,meteohub,2013-02-10 08:51:00,
2013-02-10 03:56:00,16.2,5.4,30.32,NNW,329,2.0,6.0,62,0.00,,,0.00,0.0,meteohub,2013-02-10 08:56:00,
2013-02-10 04:01:00,16.2,5.7,30.32,NNW,330,0.0,6.0,63,0.00,,,0.00,0.0,meteohub,2013-02-10 09:01:00,
2013-02-10 04:06:00,15.6,4.6,30.32,NNW,330,0.0,5.0,61,0.00,,,0.00,0.0,meteohub,2013-02-10 09:06:00,
2013-02-10 04:11:00,15.6,5.0,30.32,NNW,331,2.0,5.0,62,0.00,,,0.00,0.0,meteohub,2013-02-10 09:11:00,
2013-02-10 04:16:00,15.8,5.7,30.32,NNW,331,1.0,4.0,64,0.00,,,0.00,0.0,meteohub,2013-02-10 09:16:00,
2013-02-10 04:21:00,15.6,5.4,30.32,NNW,331,2.0,4.0,63,0.00,,,0.00,0.0,meteohub,2013-02-10 09:21:00,
2013-02-10 04:26:00,15.4,4.8,30.32,NNW,331,6.0,6.0,62,0.00,,,0.00,0.0,meteohub,2013-02-10 09:26:00,
2013-02-10 04:31:00,15.3,4.3,30.32,NNW,329,5.0,6.0,61,0.00,,,0.00,0.0,meteohub,2013-02-10 09:31:00,
2013-02-10 04:37:00,15.3,4.6,30.32,NW,326,4.0,7.0,62,0.00,,,0.00,0.0,meteohub,2013-02-10 09:37:00,
2013-02-10 04:42:00,15.3,4.6,30.32,NW,319,5.0,8.0,62,0.00,,,0.00,0.0,meteohub,2013-02-10 09:42:00,
2013-02-10 04:47:00,15.3,5.0,30.32,NNW,329,4.0,8.0,63,0.00,,,0.00,0.0,meteohub,2013-02-10 09:47:00,
2013-02-10 04:52:00,15.6,5.0,30.32,North,5,2.0,7.0,62,0.00,,,0.00,0.0,meteohub,2013-02-10 09:52:00,
2013-02-10 04:57:00,15.4,4.1,30.33,North,5,0.0,7.0,60,0.00,,,0.00,0.0,meteohub,2013-02-10 09:57:00,
2013-02-10 05:02:00,15.4,4.1,30.33,North,5,0.0,6.0,60,0.00,,,0.00,0.0,meteohub,2013-02-10 10:02:00,
2013-02-10 05:07:00,15.3,3.9,30.33,North,5,3.0,4.0,60,0.00,,,0.00,0.0,meteohub,2013-02-10 10:07:00,
2013-02-10 05:12:00,15.1,4.1,30.33,North,5,2.0,4.0,61,0.00,,,0.00,0.0,meteohub,2013-02-10 10:12:00,
2013-02-10 05:17:00,14.7,3.7,30.33,North,5,0.0,4.0,61,0.00,,,0.00,0.0,meteohub,2013-02-10 10:17:00,
2013-02-10 05:22:00,14.5,4.3,30.33,North,5,0.0,4.0,63,0.00,,,0.00,0.0,meteohub,2013-02-10 10:22:00,
2013-02-10 05:27:00,14.2,4.3,30.33,North,5,0.0,3.0,64,0.00,,,0.00,0.0,meteohub,2013-02-10 10:27:00,
2013-02-10 05:32:00,13.8,4.3,30.34,North,5,0.0,3.0,65,0.00,,,0.00,0.0,meteohub,2013-02-10 10:32:00,
2013-02-10 05:37:00,13.6,4.5,30.34,North,5,2.0,3.0,66,0.00,,,0.00,0.0,meteohub,2013-02-10 10:37:00,
2013-02-10 05:42:00,13.5,4.3,30.34,North,5,3.0,4.0,66,0.00,,,0.00,0.0,meteohub,2013-02-10 10:42:00,
2013-02-10 05:47:00,13.3,4.5,30.34,North,5,2.0,4.0,67,0.00,,,0.00,0.0,meteohub,2013-02-10 10:47:00,
2013-02-10 05:52:00,13.1,4.3,30.34,North,0,3.0,5.0,67,0.00,,,0.00,0.0,meteohub,2013-02-10 10:52:00,
2013-02-10 05:57:00,13.3,4.5,30.34,North,355,5.0,7.0,67,0.00,,,0.00,0.0,meteohub,2013-02-10 10:57:00,
2013-02-10 06:02:00,13.5,4.6,30.35,NNW,334,6.0,8.0,67,0.00,,,0.00,0.0,meteohub,2013-02-10 11:02:00,
2013-02-10 06:07:00,13.8,4.8,30.35,NNW,336,4.0,9.0,67,0.00,,,0.00,0.0,meteohub,2013-02-10 11:07:00,
2013-02-10 06:12:00,14.0,4.8,30.35,NNW,332,5.0,9.0,66,0.00,,,0.00,0.0,meteohub,2013-02-10 11:12:00,
2013-02-10 06:17:00,14.2,5.0,30.35,NNW,338,5.0,9.0,66,0.00,,,0.00,0.0,meteohub,2013-02-10 11:17:00,
2013-02-10 06:22:00,14.2,4.6,30.35,NNW,340,5.0,7.0,65,0.00,,,0.00,0.0,meteohub,2013-02-10 11:22:00,
2013-02-10 06:27:00,14.0,4.8,30.36,NNW,340,0.0,7.0,66,0.00,,,0.00,0.0,meteohub,2013-02-10 11:27:00,
2013-02-10 06:32:00,13.8,4.6,30.36,NNW,340,0.0,7.0,66,0.00,,,0.00,0.0,meteohub,2013-02-10 11:32:00,
2013-02-10 06:37:00,13.6,4.1,30.37,NNW,340,0.0,5.0,65,0.00,,,0.00,0.0,meteohub,2013-02-10 11:37:00,
2013-02-10 06:42:00,13.5,3.6,30.37,NNW,340,0.0,4.0,64,0.00,,,0.00,0.0,meteohub,2013-02-10 11:42:00,
2013-02-10 06:47:00,12.9,2.7,30.37,NNW,340,0.0,4.0,63,0.00,,,0.00,0.0,meteohub,2013-02-10 11:47:00,
2013-02-10 06:52:00,12.4,2.5,30.38,North,0,0.0,0.0,64,0.00,,,0.00,5.0,meteohub,2013-02-10 11:52:00,
2013-02-10 06:57:00,11.8,2.7,30.38,NNE,19,0.0,2.0,66,0.00,,,0.00,7.0,meteohub,2013-02-10 11:57:00,
2013-02-10 07:02:00,11.7,3.2,30.38,NNE,19,0.0,2.0,68,0.00,,,0.00,11.0,meteohub,2013-02-10 12:02:00,
2013-02-10 07:07:00,11.5,3.4,30.38,NNE,19,0.0,1.0,69,0.00,,,0.00,12.0,meteohub,2013-02-10 12:07:00,
2013-02-10 07:12:00,11.1,3.0,30.38,ESE,112,0.0,3.0,69,0.00,,,0.00,18.0,meteohub,2013-02-10 12:12:00,
2013-02-10 07:17:00,10.9,3.0,30.39,ESE,112,0.0,4.0,70,0.00,,,0.00,18.0,meteohub,2013-02-10 12:17:00,
2013-02-10 07:22:00,10.9,3.0,30.39,ESE,112,0.0,4.0,70,0.00,,,0.00,25.0,meteohub,2013-02-10 12:22:00,
2013-02-10 07:27:00,10.8,3.2,30.40,ESE,112,0.0,4.0,71,0.00,,,0.00,35.0,meteohub,2013-02-10 12:27:00,
2013-02-10 07:32:00,10.9,3.4,30.40,ESE,112,0.0,0.0,71,0.00,,,0.00,49.0,meteohub,2013-02-10 12:32:00,
2013-02-10 07:37:00,10.9,3.4,30.40,ESE,112,0.0,0.0,71,0.00,,,0.00,60.0,meteohub,2013-02-10 12:37:00,
2013-02-10 07:42:00,11.1,3.6,30.40,SSE,150,0.0,0.0,71,0.00,,,0.00,69.0,meteohub,2013-02-10 12:42:00,
2013-02-10 07:47:00,11.7,4.1,30.40,SSE,150,0.0,0.0,71,0.00,,,0.00,69.0,meteohub,2013-02-10 12:47:00,
2013-02-10 07:52:00,12.4,4.8,30.41,SSE,150,0.0,0.0,71,0.00,,,0.00,107.0,meteohub,2013-02-10 12:52:00,
2013-02-10 07:57:00,13.1,5.2,30.41,SSE,150,0.0,0.0,70,0.00,,,0.00,121.0,meteohub,2013-02-10 12:57:00,
2013-02-10 08:02:00,13.8,5.9,30.41,SSE,148,0.0,1.0,70,0.00,,,0.00,139.0,meteohub,2013-02-10 13:02:00,
2013-02-10 08:07:00,14.7,7.0,30.41,SSE,148,0.0,4.0,71,0.00,,,0.00,156.0,meteohub,2013-02-10 13:07:00,
2013-02-10 08:12:00,15.6,7.5,30.40,SSE,163,0.0,4.0,70,0.00,,,0.00,183.0,meteohub,2013-02-10 13:12:00,
2013-02-10 08:17:00,16.3,7.9,30.40,SSE,163,0.0,1.0,69,0.00,,,0.00,190.0,meteohub,2013-02-10 13:17:00,
2013-02-10 08:22:00,16.9,8.2,30.41,WNW,303,2.0,2.0,68,0.00,,,0.00,211.0,meteohub,2013-02-10 13:22:00,
2013-02-10 08:27:00,17.2,7.9,30.40,NW,323,5.0,5.0,66,0.00,,,0.00,225.0,meteohub,2013-02-10 13:27:00,
2013-02-10 08:32:00,17.8,7.7,30.40,NNW,340,5.0,9.0,64,0.00,,,0.00,243.0,meteohub,2013-02-10 13:32:00,
2013-02-10 08:37:00,18.5,7.7,30.40,NNW,337,6.0,10.0,62,0.00,,,0.00,264.0,meteohub,2013-02-10 13:37:00,
2013-02-10 08:42:00,19.0,7.9,30.40,North,5,7.0,10.0,61,0.00,,,0.00,278.0,meteohub,2013-02-10 13:42:00,
2013-02-10 08:47:00,19.9,8.2,30.40,NNE,16,5.0,12.0,60,0.00,,,0.00,292.0,meteohub,2013-02-10 13:47:00,
2013-02-10 08:52:00,20.7,8.2,30.41,North,0,4.0,12.0,58,0.00,,,0.00,304.0,meteohub,2013-02-10 13:52:00,
2013-02-10 08:57:00,21.2,8.8,30.41,North,355,5.0,12.0,58,0.00,,,0.00,315.0,meteohub,2013-02-10 13:57:00,
2013-02-10 09:02:00,21.9,9.3,30.40,North,10,6.0,12.0,58,0.00,,,0.00,330.0,meteohub,2013-02-10 14:02:00,
2013-02-10 09:07:00,22.8,9.9,30.41,North,5,4.0,11.0,57,0.00,,,0.00,346.0,meteohub,2013-02-10 14:07:00,
2013-02-10 09:12:00,23.5,10.2,30.41,North,5,5.0,11.0,56,0.00,,,0.00,348.0,meteohub,2013-02-10 14:12:00,
2013-02-10 09:17:00,24.1,10.2,30.41,NNE,22,2.0,8.0,55,0.00,,,0.00,369.0,meteohub,2013-02-10 14:17:00,
2013-02-10 09:22:00,24.3,9.7,30.42,NW,315,4.0,8.0,53,0.00,,,0.00,367.0,meteohub,2013-02-10 14:22:00,
2013-02-10 09:27:00,24.3,10.4,30.42,North,9,3.0,8.0,55,0.00,,,0.00,394.0,meteohub,2013-02-10 14:27:00,
2013-02-10 09:32:00,24.6,10.4,30.42,North,355,10.0,12.0,54,0.00,,,0.00,413.0,meteohub,2013-02-10 14:32:00,
2013-02-10 09:37:00,25.2,10.4,30.42,NNW,345,10.0,15.0,53,0.00,,,0.00,418.0,meteohub,2013-02-10 14:37:00,
2013-02-10 09:42:00,25.9,10.8,30.43,North,5,5.0,16.0,52,0.00,,,0.00,431.0,meteohub,2013-02-10 14:42:00,
2013-02-10 09:47:00,26.1,10.8,30.43,NNE,17,6.0,16.0,52,0.00,,,0.00,445.0,meteohub,2013-02-10 14:47:00,
2013-02-10 09:52:00,26.4,10.8,30.43,NNE,18,7.0,16.0,51,0.00,,,0.00,448.0,meteohub,2013-02-10 14:52:00,
2013-02-10 09:57:00,27.0,10.8,30.43,North,5,11.0,14.0,50,0.00,,,0.00,464.0,meteohub,2013-02-10 14:57:00,
2013-02-10 10:02:00,27.5,11.7,30.43,NNW,348,7.0,14.0,51,0.00,,,0.00,466.0,meteohub,2013-02-10 15:02:00,
2013-02-10 10:07:00,27.7,11.8,30.43,NNE,15,6.0,14.0,51,0.00,,,0.00,485.0,meteohub,2013-02-10 15:07:00,
2013-02-10 10:12:00,28.2,12.4,30.43,NNE,23,2.0,13.0,51,0.00,,,0.00,497.0,meteohub,2013-02-10 15:12:00,
2013-02-10 10:17:00,27.9,11.1,30.43,NNW,331,6.0,11.0,49,0.00,,,0.00,501.0,meteohub,2013-02-10 15:17:00,
2013-02-10 10:22:00,27.1,10.9,30.43,NW,321,6.0,11.0,50,0.00,,,0.00,510.0,meteohub,2013-02-10 15:22:00,
2013-02-10 10:27:00,27.1,11.8,30.43,NNW,328,5.0,11.0,52,0.00,,,0.00,526.0,meteohub,2013-02-10 15:27:00,
2013-02-10 10:32:00,27.5,11.3,30.43,NW,318,7.0,10.0,50,0.00,,,0.00,526.0,meteohub,2013-02-10 15:32:00,
2013-02-10 10:37:00,27.3,11.1,30.44,NW,317,5.0,9.0,50,0.00,,,0.00,534.0,meteohub,2013-02-10 15:37:00,
2013-02-10 10:42:00,27.0,10.8,30.44,NW,304,6.0,9.0,50,0.00,,,0.00,541.0,meteohub,2013-02-10 15:42:00,
2013-02-10 10:47:00,27.1,10.9,30.44,NW,311,4.0,11.0,50,0.00,,,0.00,547.0,meteohub,2013-02-10 15:47:00,
2013-02-10 10:52:00,27.7,11.8,30.43,North,355,9.0,11.0,51,0.00,,,0.00,552.0,meteohub,2013-02-10 15:52:00,
2013-02-10 10:57:00,28.6,11.8,30.43,WNW,292,7.0,11.0,49,0.00,,,0.00,561.0,meteohub,2013-02-10 15:57:00,
2013-02-10 11:02:00,29.1,13.3,30.43,NNE,32,5.0,9.0,51,0.00,,,0.00,566.0,meteohub,2013-02-10 16:02:00,
2013-02-10 11:07:00,30.6,14.2,30.43,NNE,25,5.0,9.0,50,0.00,,,0.00,570.0,meteohub,2013-02-10 16:07:00,
2013-02-10 11:12:00,31.6,13.3,30.43,NNE,32,3.0,9.0,46,0.00,,,0.00,573.0,meteohub,2013-02-10 16:12:00,
2013-02-10 11:17:00,32.0,14.0,30.43,NNW,340,7.0,9.0,47,0.00,,,0.00,580.0,meteohub,2013-02-10 16:17:00,
2013-02-10 11:22:00,31.6,14.2,30.43,NNW,341,5.0,9.0,48,0.00,,,0.00,585.0,meteohub,2013-02-10 16:22:00,
2013-02-10 11:27:00,32.4,15.8,30.43,NNW,341,2.0,8.0,50,0.00,,,0.00,587.0,meteohub,2013-02-10 16:27:00,
2013-02-10 11:32:00,34.0,15.4,30.43,NNW,341,0.0,8.0,46,0.00,,,0.00,589.0,meteohub,2013-02-10 16:32:00,
2013-02-10 11:37:00,35.4,16.7,30.43,NW,323,0.0,6.0,46,0.00,,,0.00,594.0,meteohub,2013-02-10 16:37:00,
2013-02-10 11:42:00,36.1,16.3,30.43,NNW,347,2.0,6.0,44,0.00,,,0.00,601.0,meteohub,2013-02-10 16:42:00,
2013-02-10 11:47:00,37.0,18.1,30.43,NNW,346,0.0,6.0,46,0.00,,,0.00,601.0,meteohub,2013-02-10 16:47:00,
2013-02-10 11:52:00,37.6,14.9,30.42,NNE,24,0.0,6.0,39,0.00,,,0.00,599.0,meteohub,2013-02-10 16:52:00,
2013-02-10 11:57:00,38.7,14.5,30.42,NNE,24,0.0,6.0,37,0.00,,,0.00,603.0,meteohub,2013-02-10 16:57:00,
2013-02-10 12:03:00,38.8,16.5,30.41,NNE,24,0.0,3.0,40,0.00,,,0.00,603.0,meteohub,2013-02-10 17:03:00,
2013-02-10 12:08:00,40.1,15.3,30.41,NNE,24,0.0,3.0,36,0.01,,,0.01,605.0,meteohub,2013-02-10 17:08:00,
2013-02-10 12:13:00,40.6,17.1,30.41,North,5,2.0,3.0,38,0.01,,,0.01,621.0,meteohub,2013-02-10 17:13:00,
2013-02-10 12:18:00,40.8,15.3,30.41,North,5,0.0,6.0,35,0.01,,,0.01,605.0,meteohub,2013-02-10 17:18:00,
2013-02-10 12:23:00,41.2,16.9,30.40,ENE,67,0.0,6.0,37,0.01,,,0.01,603.0,meteohub,2013-02-10 17:23:00,
2013-02-10 12:28:00,41.5,17.8,30.40,SE,146,1.0,6.0,38,0.01,,,0.01,571.0,meteohub,2013-02-10 17:28:00,
2013-02-10 12:33:00,40.3,15.4,30.40,South,182,2.0,4.0,36,0.01,,,0.01,559.0,meteohub,2013-02-10 17:33:00,
2013-02-10 12:38:00,37.0,15.4,30.39,South,179,6.0,7.0,41,0.01,,,0.01,564.0,meteohub,2013-02-10 17:38:00,
2013-02-10 12:44:00,35.1,12.6,30.39,South,181,3.0,7.0,39,0.01,,,0.01,605.0,meteohub,2013-02-10 17:44:00,
2013-02-10 12:49:00,34.0,14.4,30.39,South,190,6.0,8.0,44,0.01,,,0.01,594.0,meteohub,2013-02-10 17:49:00,
2013-02-10 12:54:00,33.4,14.4,30.39,South,187,9.0,9.0,45,0.01,,,0.01,589.0,meteohub,2013-02-10 17:54:00,
2013-02-10 12:59:00,32.4,14.4,30.39,SW,221,6.0,9.0,47,0.01,,,0.01,585.0,meteohub,2013-02-10 17:59:00,
2013-02-10 13:04:00,32.9,15.8,30.39,SW,222,6.0,11.0,49,0.01,,,0.01,582.0,meteohub,2013-02-10 18:04:00,
2013-02-10 13:10:00,33.4,15.8,30.39,SW,231,5.0,11.0,48,0.00,,,0.01,577.0,meteohub,2013-02-10 18:10:00,
2013-02-10 13:15:00,33.4,14.9,30.39,SSW,202,4.0,11.0,46,0.00,,,0.01,573.0,meteohub,2013-02-10 18:15:00,
2013-02-10 13:20:00,33.4,14.4,30.39,SSW,203,2.0,10.0,45,0.00,,,0.01,566.0,meteohub,2013-02-10 18:20:00,
2013-02-10 13:25:00,33.1,15.1,30.39,SW,220,7.0,11.0,47,0.00,,,0.01,559.0,meteohub,2013-02-10 18:25:00,
2013-02-10 13:30:00,33.1,15.1,30.38,SW,225,13.0,13.0,47,0.00,,,0.01,552.0,meteohub,2013-02-10 18:30:00,
2013-02-10 13:35:00,32.7,14.2,30.38,SSW,195,8.0,13.0,46,0.00,,,0.01,543.0,meteohub,2013-02-10 18:35:00,
2013-02-10 13:40:00,32.5,13.6,30.38,SSW,192,4.0,13.0,45,0.00,,,0.01,538.0,meteohub,2013-02-10 18:40:00,
2013-02-10 13:46:00,32.5,14.0,30.38,SSW,192,4.0,13.0,46,0.00,,,0.01,529.0,meteohub,2013-02-10 18:46:00,
2013-02-10 13:51:00,32.9,13.8,30.38,SSW,194,5.0,11.0,45,0.00,,,0.01,520.0,meteohub,2013-02-10 18:51:00,
2013-02-10 13:56:00,33.1,14.0,30.37,SW,222,3.0,11.0,45,0.00,,,0.01,513.0,meteohub,2013-02-10 18:56:00,
2013-02-10 14:01:00,33.6,16.0,30.37,South,175,7.0,10.0,48,0.01,,,0.02,503.0,meteohub,2013-02-10 19:01:00,
2013-02-10 14:06:00,33.6,16.5,30.37,WSW,241,5.0,11.0,49,0.01,,,0.02,492.0,meteohub,2013-02-10 19:06:00,
2013-02-10 14:11:00,33.4,16.3,30.37,West,263,6.0,12.0,49,0.01,,,0.02,483.0,meteohub,2013-02-10 19:11:00,
2013-02-10 14:16:00,33.3,17.1,30.37,SSW,195,8.0,12.0,51,0.02,,,0.03,476.0,meteohub,2013-02-10 19:16:00,
2013-02-10 14:21:00,33.3,17.1,30.37,SSW,213,5.0,12.0,51,0.02,,,0.03,464.0,meteohub,2013-02-10 19:21:00,
2013-02-10 14:27:00,33.4,17.8,30.38,SSW,213,7.0,12.0,52,0.02,,,0.03,452.0,meteohub,2013-02-10 19:27:00,
2013-02-10 14:32:00,33.6,17.4,30.38,SW,231,13.0,13.0,51,0.02,,,0.03,443.0,meteohub,2013-02-10 19:32:00,
2013-02-10 14:37:00,33.4,17.2,30.38,SW,233,6.0,15.0,51,0.02,,,0.03,431.0,meteohub,2013-02-10 19:37:00,
2013-02-10 14:42:00,33.4,16.9,30.38,WSW,249,11.0,15.0,50,0.03,,,0.04,418.0,meteohub,2013-02-10 19:42:00,
2013-02-10 14:47:00,33.3,17.1,30.38,SSW,202,7.0,15.0,51,0.03,,,0.04,418.0,meteohub,2013-02-10 19:47:00,
2013-02-10 14:52:00,33.3,17.6,30.38,SW,227,3.0,13.0,52,0.03,,,0.04,401.0,meteohub,2013-02-10 19:52:00,
2013-02-10 14:57:00,33.3,18.0,30.38,SW,234,5.0,13.0,53,0.03,,,0.04,397.0,meteohub,2013-02-10 19:57:00,
2013-02-10 15:02:00,33.1,17.8,30.39,SW,214,8.0,13.0,53,0.03,,,0.05,151.0,meteohub,2013-02-10 20:02:00,
2013-02-10 15:07:00,32.5,18.5,30.39,WSW,238,7.0,13.0,56,0.03,,,0.05,144.0,meteohub,2013-02-10 20:07:00,
2013-02-10 15:13:00,31.8,18.3,30.40,SSW,205,7.0,14.0,57,0.03,,,0.05,178.0,meteohub,2013-02-10 20:13:00,
2013-02-10 15:17:00,31.5,18.9,30.39,SW,223,3.0,16.0,59,0.03,,,0.06,190.0,meteohub,2013-02-10 20:17:00,
2013-02-10 15:22:00,31.5,19.2,30.39,SW,236,1.0,16.0,60,0.03,,,0.06,207.0,meteohub,2013-02-10 20:22:00,
2013-02-10 15:28:00,31.5,19.2,30.38,West,272,1.0,16.0,60,0.03,,,0.06,237.0,meteohub,2013-02-10 20:28:00,
2013-02-10 15:33:00,31.6,19.4,30.38,SW,215,6.0,11.0,60,0.03,,,0.06,267.0,meteohub,2013-02-10 20:33:00,
2013-02-10 15:38:00,32.0,19.8,30.38,SW,220,2.0,11.0,60,0.02,,,0.06,232.0,meteohub,2013-02-10 20:38:00,
2013-02-10 15:43:00,32.4,19.9,30.38,WNW,287,2.0,10.0,60,0.03,,,0.07,221.0,meteohub,2013-02-10 20:43:00,
2013-02-10 15:48:00,32.5,19.4,30.37,WSW,245,3.0,10.0,58,0.03,,,0.07,227.0,meteohub,2013-02-10 20:48:00,
2013-02-10 15:53:00,32.9,20.1,30.37,WNW,296,5.0,8.0,59,0.03,,,0.07,192.0,meteohub,2013-02-10 20:53:00,
2013-02-10 15:58:00,32.9,19.4,30.37,SW,220,6.0,8.0,57,0.02,,,0.07,171.0,meteohub,2013-02-10 20:58:00,
2013-02-10 16:03:00,32.5,18.5,30.37,SSW,213,4.0,9.0,56,0.02,,,0.07,169.0,meteohub,2013-02-10 21:03:00,
2013-02-10 16:09:00,32.5,18.5,30.37,SW,234,3.0,9.0,56,0.02,,,0.07,151.0,meteohub,2013-02-10 21:09:00,
2013-02-10 16:14:00,32.5,18.1,30.37,SSW,207,4.0,9.0,55,0.03,,,0.08,130.0,meteohub,2013-02-10 21:14:00,
2013-02-10 16:19:00,32.4,18.5,30.37,West,265,5.0,8.0,56,0.02,,,0.08,109.0,meteohub,2013-02-10 21:19:00,
2013-02-10 16:24:00,32.2,17.8,30.37,SSW,209,4.0,7.0,55,0.02,,,0.08,97.0,meteohub,2013-02-10 21:24:00,
2013-02-10 16:29:00,32.4,18.0,30.37,SSW,211,3.0,7.0,55,0.03,,,0.09,83.0,meteohub,2013-02-10 21:29:00,
2013-02-10 16:34:00,32.4,18.5,30.37,WSW,240,2.0,7.0,56,0.03,,,0.09,70.0,meteohub,2013-02-10 21:34:00,
2013-02-10 16:39:00,32.5,18.5,30.37,SW,231,4.0,6.0,56,0.02,,,0.09,63.0,meteohub,2013-02-10 21:39:00,
2013-02-10 16:45:00,32.5,18.1,30.37,SW,228,0.0,5.0,55,0.02,,,0.09,49.0,meteohub,2013-02-10 21:45:00,
2013-02-10 16:50:00,32.5,19.0,30.37,SW,228,0.0,5.0,57,0.02,,,0.09,28.0,meteohub,2013-02-10 21:50:00,
2013-02-10 16:55:00,32.5,19.4,30.38,SW,228,0.0,4.0,58,0.02,,,0.09,26.0,meteohub,2013-02-10 21:55:00,
2013-02-10 17:00:00,32.4,18.0,30.37,SW,228,0.0,4.0,55,0.02,,,0.09,19.0,meteohub,2013-02-10 22:00:00,
2013-02-10 17:05:00,32.2,17.8,30.37,SW,224,2.0,4.0,55,0.01,,,0.09,14.0,meteohub,2013-02-10 22:05:00,
2013-02-10 17:10:00,32.2,19.0,30.37,SW,223,0.0,4.0,58,0.01,,,0.09,9.0,meteohub,2013-02-10 22:10:00,
2013-02-10 17:15:00,32.0,19.8,30.38,SW,223,0.0,3.0,60,0.01,,,0.09,7.0,meteohub,2013-02-10 22:15:00,
2013-02-10 17:21:00,31.6,19.8,30.38,SW,223,0.0,3.0,61,0.01,,,0.09,0.0,meteohub,2013-02-10 22:21:00,
2013-02-10 17:26:00,31.6,20.1,30.37,SW,223,0.0,1.0,62,0.00,,,0.09,0.0,meteohub,2013-02-10 22:26:00,
2013-02-10 17:31:00,31.6,20.1,30.37,SW,223,0.0,0.0,62,0.00,,,0.09,0.0,meteohub,2013-02-10 22:31:00,
2013-02-10 17:36:00,31.5,20.7,30.38,SW,223,0.0,0.0,64,0.00,,,0.09,0.0,meteohub,2013-02-10 22:36:00,
2013-02-10 17:41:00,30.7,19.9,30.38,SW,223,0.0,0.0,64,0.00,,,0.09,0.0,meteohub,2013-02-10 22:41:00,
2013-02-10 17:46:00,30.4,19.9,30.38,SW,223,0.0,0.0,65,0.00,,,0.09,0.0,meteohub,2013-02-10 22:46:00,
2013-02-10 17:52:00,30.2,19.9,30.38,SW,223,0.0,1.0,65,0.00,,,0.09,0.0,meteohub,2013-02-10 22:52:00,
2013-02-10 17:57:00,30.0,20.1,30.38,SW,223,0.0,1.0,66,0.00,,,0.09,0.0,meteohub,2013-02-10 22:57:00,
2013-02-10 18:02:00,29.8,19.9,30.37,SW,223,2.0,2.0,66,0.00,,,0.09,0.0,meteohub,2013-02-10 23:02:00,
2013-02-10 18:07:00,29.7,20.1,30.37,SW,223,0.0,3.0,67,0.00,,,0.09,0.0,meteohub,2013-02-10 23:07:00,
2013-02-10 18:12:00,29.1,19.6,30.37,SW,223,0.0,3.0,67,0.00,,,0.09,0.0,meteohub,2013-02-10 23:12:00,
2013-02-10 18:17:00,28.9,19.4,30.37,SW,223,0.0,3.0,67,0.00,,,0.09,0.0,meteohub,2013-02-10 23:17:00,
2013-02-10 18:22:00,28.8,19.2,30.37,SW,223,0.0,0.0,67,0.00,,,0.09,0.0,meteohub,2013-02-10 23:22:00,
2013-02-10 18:27:00,28.6,19.4,30.37,SW,223,0.0,0.0,68,0.00,,,0.09,0.0,meteohub,2013-02-10 23:27:00,
2013-02-10 18:32:00,28.2,19.4,30.37,SW,223,0.0,1.0,69,0.00,,,0.09,0.0,meteohub,2013-02-10 23:32:00,
2013-02-10 18:37:00,27.9,19.0,30.38,SW,223,0.0,1.0,69,0.00,,,0.09,0.0,meteohub,2013-02-10 23:37:00,
2013-02-10 18:42:00,27.0,18.1,30.38,SW,223,0.0,1.0,69,0.00,,,0.09,0.0,meteohub,2013-02-10 23:42:00,
2013-02-10 18:47:00,26.4,18.0,30.38,SW,223,0.0,3.0,70,0.00,,,0.09,0.0,meteohub,2013-02-10 23:47:00,
2013-02-10 18:52:00,26.1,17.6,30.38,SW,220,0.0,3.0,70,0.00,,,0.09,0.0,meteohub,2013-02-10 23:52:00,
2013-02-10 18:57:00,26.1,17.6,30.38,SW,220,0.0,1.0,70,0.00,,,0.09,0.0,meteohub,2013-02-10 23:57:00,
2013-02-10 19:02:00,25.9,17.8,30.38,SW,220,0.0,1.0,71,0.00,,,0.09,0.0,meteohub,2013-02-11 00:02:00,
2013-02-10 19:07:00,25.9,18.1,30.38,SW,220,0.0,0.0,72,0.00,,,0.00,0.0,meteohub,2013-02-11 00:07:00,
2013-02-10 19:12:00,25.7,18.0,30.38,SW,220,0.0,0.0,72,0.00,,,0.00,0.0,meteohub,2013-02-11 00:12:00,
2013-02-10 19:17:00,25.5,17.8,30.38,SW,220,0.0,3.0,72,0.00,,,0.00,0.0,meteohub,2013-02-11 00:17:00,
2013-02-10 19:22:00,25.3,18.0,30.38,SW,220,0.0,3.0,73,0.00,,,0.00,0.0,meteohub,2013-02-11 00:22:00,
2013-02-10 19:27:00,25.2,17.8,30.38,SW,220,0.0,3.0,73,0.00,,,0.00,0.0,meteohub,2013-02-11 00:27:00,
2013-02-10 19:32:00,25.2,17.8,30.38,SW,220,0.0,0.0,73,0.00,,,0.00,0.0,meteohub,2013-02-11 00:32:00,
2013-02-10 19:37:00,25.0,18.0,30.38,SW,220,0.0,0.0,74,0.00,,,0.00,0.0,meteohub,2013-02-11 00:37:00,
2013-02-10 19:42:00,24.6,17.6,30.38,SW,220,0.0,0.0,74,0.00,,,0.00,0.0,meteohub,2013-02-11 00:42:00,
2013-02-10 19:47:00,24.4,17.4,30.38,SW,220,0.0,0.0,74,0.00,,,0.00,0.0,meteohub,2013-02-11 00:47:00,
2013-02-10 19:52:00,24.1,17.1,30.38,SW,220,0.0,0.0,74,0.01,,,0.01,0.0,meteohub,2013-02-11 00:52:00,
2013-02-10 19:57:00,23.7,16.7,30.38,SW,220,1.0,0.0,74,0.01,,,0.01,0.0,meteohub,2013-02-11 00:57:00,
2013-02-10 20:03:00,23.0,16.0,30.38,SW,220,0.0,2.0,74,0.01,,,0.01,0.0,meteohub,2013-02-11 01:03:00,
2013-02-10 20:08:00,22.6,15.6,30.38,SW,220,0.0,2.0,74,0.01,,,0.01,0.0,meteohub,2013-02-11 01:08:00,
2013-02-10 20:13:00,22.3,15.6,30.39,SW,220,3.0,3.0,75,0.01,,,0.01,0.0,meteohub,2013-02-11 01:13:00,
2013-02-10 20:18:00,21.9,15.3,30.38,SW,220,2.0,3.0,75,0.01,,,0.01,0.0,meteohub,2013-02-11 01:18:00,
2013-02-10 20:23:00,21.9,15.4,30.38,SW,220,0.0,3.0,76,0.01,,,0.01,0.0,meteohub,2013-02-11 01:23:00,
2013-02-10 20:28:00,21.6,15.3,30.39,SW,220,0.0,3.0,76,0.01,,,0.01,0.0,meteohub,2013-02-11 01:28:00,
2013-02-10 20:33:00,21.2,14.9,30.39,SW,220,0.0,3.0,76,0.01,,,0.01,0.0,meteohub,2013-02-11 01:33:00,
2013-02-10 20:38:00,21.0,14.7,30.39,SW,220,0.0,3.0,76,0.01,,,0.01,0.0,meteohub,2013-02-11 01:38:00,
2013-02-10 20:44:00,21.0,14.9,30.39,SW,220,1.0,0.0,77,0.01,,,0.01,0.0,meteohub,2013-02-11 01:44:00,
2013-02-10 20:49:00,20.8,14.7,30.38,SW,220,0.0,3.0,77,0.01,,,0.01,0.0,meteohub,2013-02-11 01:49:00,
2013-02-10 20:54:00,20.7,14.5,30.38,SW,220,0.0,3.0,77,0.00,,,0.01,0.0,meteohub,2013-02-11 01:54:00,
2013-02-10 20:59:00,20.5,14.4,30.38,SW,220,0.0,3.0,77,0.00,,,0.01,0.0,meteohub,2013-02-11 01:59:00,
2013-02-10 21:04:00,20.1,14.0,30.38,SW,220,0.0,2.0,77,0.00,,,0.01,0.0,meteohub,2013-02-11 02:04:00,
2013-02-10 21:09:00,20.1,14.4,30.38,SW,220,3.0,3.0,78,0.00,,,0.01,0.0,meteohub,2013-02-11 02:09:00,
2013-02-10 21:14:00,19.8,14.0,30.37,SW,220,0.0,3.0,78,0.00,,,0.01,0.0,meteohub,2013-02-11 02:14:00,
2013-02-10 21:19:00,19.6,13.8,30.38,SW,220,0.0,3.0,78,0.00,,,0.01,0.0,meteohub,2013-02-11 02:19:00,
2013-02-10 21:25:00,19.0,13.3,30.37,SW,220,0.0,3.0,78,0.00,,,0.01,0.0,meteohub,2013-02-11 02:25:00,
2013-02-10 21:30:00,18.9,13.1,30.36,SW,220,0.0,3.0,78,0.00,,,0.01,0.0,meteohub,2013-02-11 02:30:00,
2013-02-10 21:35:00,18.9,13.5,30.36,SW,220,1.0,3.0,79,0.00,,,0.01,0.0,meteohub,2013-02-11 02:35:00,
2013-02-10 21:40:00,18.7,13.3,30.36,SW,220,0.0,3.0,79,0.00,,,0.01,0.0,meteohub,2013-02-11 02:40:00,
2013-02-10 21:45:00,18.7,13.3,30.36,SW,220,0.0,3.0,79,0.00,,,0.01,0.0,meteohub,2013-02-11 02:45:00,
2013-02-10 21:50:00,18.5,13.1,30.36,SW,220,0.0,2.0,79,0.00,,,0.01,0.0,meteohub,2013-02-11 02:50:00,
2013-02-10 21:55:00,18.1,12.7,30.36,SW,220,0.0,0.0,79,0.00,,,0.01,0.0,meteohub,2013-02-11 02:55:00,
2013-02-10 22:01:00,18.0,12.6,30.37,SW,220,0.0,1.0,79,0.00,,,0.01,0.0,meteohub,2013-02-11 03:01:00,
2013-02-10 22:06:00,18.0,12.9,30.36,SW,220,0.0,1.0,80,0.00,,,0.01,0.0,meteohub,2013-02-11 03:06:00,
2013-02-10 22:11:00,18.0,12.9,30.36,SW,220,0.0,1.0,80,0.00,,,0.01,0.0,meteohub,2013-02-11 03:11:00,
2013-02-10 22:16:00,17.8,12.7,30.36,SW,220,0.0,1.0,80,0.00,,,0.01,0.0,meteohub,2013-02-11 03:16:00,
2013-02-10 22:21:00,17.8,12.9,30.36,SW,220,2.0,2.0,81,0.00,,,0.01,0.0,meteohub,2013-02-11 03:21:00,
2013-02-10 22:26:00,17.8,12.9,30.37,SW,220,0.0,3.0,81,0.00,,,0.01,0.0,meteohub,2013-02-11 03:26:00,
2013-02-10 22:31:00,18.0,13.1,30.37,SW,220,0.0,3.0,81,0.00,,,0.01,0.0,meteohub,2013-02-11 03:31:00,
2013-02-10 22:37:00,18.0,13.1,30.37,SW,220,0.0,3.0,81,0.00,,,0.01,0.0,meteohub,2013-02-11 03:37:00,
2013-02-10 22:42:00,18.0,13.1,30.37,SW,220,1.0,0.0,81,0.00,,,0.01,0.0,meteohub,2013-02-11 03:42:00,
2013-02-10 22:47:00,17.6,12.7,30.37,SW,220,1.0,2.0,81,0.00,,,0.01,0.0,meteohub,2013-02-11 03:47:00,
2013-02-10 22:52:00,17.6,12.7,30.36,SW,220,0.0,2.0,81,0.00,,,0.01,0.0,meteohub,2013-02-11 03:52:00,
2013-02-10 22:57:00,17.6,12.7,30.36,SW,220,1.0,2.0,81,0.00,,,0.01,0.0,meteohub,2013-02-11 03:57:00,
2013-02-10 23:02:00,17.4,12.6,30.36,SW,220,0.0,2.0,81,0.00,,,0.01,0.0,meteohub,2013-02-11 04:02:00,
2013-02-10 23:07:00,17.4,12.6,30.35,SW,220,0.0,2.0,81,0.00,,,0.01,0.0,meteohub,2013-02-11 04:07:00,
2013-02-10 23:12:00,17.4,12.9,30.35,SW,220,0.0,2.0,82,0.00,,,0.01,0.0,meteohub,2013-02-11 04:12:00,
2013-02-10 23:17:00,17.4,12.9,30.34,SW,220,1.0,1.0,82,0.00,,,0.01,0.0,meteohub,2013-02-11 04:17:00,
2013-02-10 23:22:00,17.4,12.9,30.34,SW,220,1.0,2.0,82,0.00,,,0.01,0.0,meteohub,2013-02-11 04:22:00,
2013-02-10 23:27:00,17.4,12.9,30.33,SW,220,0.0,2.0,82,0.00,,,0.01,0.0,meteohub,2013-02-11 04:27:00,
2013-02-10 23:32:00,17.4,12.9,30.34,SW,220,0.0,2.0,82,0.00,,,0.01,0.0,meteohub,2013-02-11 04:32:00,
2013-02-10 23:37:00,17.4,12.9,30.34,SW,220,0.0,1.0,82,0.00,,,0.01,0.0,meteohub,2013-02-11 04:37:00,
2013-02-10 23:42:00,17.4,12.9,30.35,SW,220,0.0,1.0,82,0.00,,,0.01,0.0,meteohub,2013-02-11 04:42:00,
2013-02-10 23:47:00,17.2,12.7,30.34,SW,220,0.0,1.0,82,0.00,,,0.01,0.0,meteohub,2013-02-11 04:47:00,
2013-02-10 23:52:00,17.4,13.1,30.34,SW,220,0.0,0.0,83,0.00,,,0.01,0.0,meteohub,2013-02-11 04:52:00,
2013-02-10 23:57:00,17.8,13.5,30.34,SW,220,0.0,2.0,83,0.00,,,0.01,0.0,meteohub,2013-02-11 04:57:00,